Simultaneous Nadir Overpasses (SNOs) Predictions

Prediction of SNOs between GOES-17 and AQUA Satellite Orbit:

Table of predicted SNOs for the next 14.0 days since TLE Epoch: 4/17/2021
Index Date Time (GOES-17) GOES-17 Lat,Lon AQUA Lat,Lon Distance(km) Time Diff (sec)
1 04/17/2021 22:39:49 0.03,-137.19 0.19,-136.45 84.43 80
2 04/19/2021 22:30:17 0.03,-137.17 0.79,-133.48 418.82 80
3 04/20/2021 10:51:32 -0.02,-137.17 0.32,-138.64 167.74 80
4 04/22/2021 10:36:41 -0.02,-137.14 -0.35,-135.69 165.98 80
5 04/22/2021 22:58:05 0.01,-137.13 -0.79,-140.87 425.42 80
6 04/24/2021 10:24:29 -0.02,-137.11 -0.95,-132.73 499.13 80
7 04/24/2021 22:45:53 0.01,-137.11 -0.18,-137.91 92.41 80
8 04/26/2021 22:36:22 0.02,-137.07 0.49,-134.96 240.00 80
9 04/27/2021 10:57:37 -0.01,-137.06 0.61,-140.12 347.06 80
10 04/29/2021 10:45:25 -0.02,-137.02 -0.01,-137.16 15.99 80
